Previsão horária em Barro

Hoje, 25 Outubro, Domingo

Tempo Temperatura Precipitação Vento Pressão Humidade
00:00 +27°C° 0.1 mm 2 m/s 734 mmHg 72%
01:00 +26°C° 0 mm 2 m/s 734 mmHg 72%
02:00 +26°C° 0 mm 2 m/s 733 mmHg 73%
03:00 +25°C° 0 mm 2 m/s 733 mmHg 73%
04:00 +25°C° 0 mm 2 m/s 734 mmHg 73%
05:00 +25°C° 0 mm 2 m/s 734 mmHg 73%
06:00 +25°C° 0 mm 1 m/s 735 mmHg 74%
07:00 +28°C° 0 mm 2 m/s 735 mmHg 64%
08:00 +30°C° 0 mm 3 m/s 735 mmHg 55%
09:00 +33°C° 0 mm 3 m/s 736 mmHg 46%
10:00 +36°C° 0 mm 3 m/s 735 mmHg 39%
11:00 +38°C° 0 mm 3 m/s 734 mmHg 33%
12:00 +40°C° 0 mm 3 m/s 733 mmHg 27%
13:00 +40°C° 0 mm 3 m/s 733 mmHg 25%
14:00 +40°C° 0 mm 3 m/s 732 mmHg 23%
15:00 +42°C° 0 mm 3 m/s 731 mmHg 21%
16:00 +39°C° 0 mm 2 m/s 731 mmHg 24%
17:00 +37°C° 0 mm 2 m/s 731 mmHg 26%
18:00 +34°C° 0 mm 1 m/s 732 mmHg 28%
19:00 +34°C° 0 mm 2 m/s 732 mmHg 36%
20:00 +31°C° 0 mm 2 m/s 733 mmHg 45%
21:00 +30°C° 0 mm 3 m/s 734 mmHg 54%
22:00 +29°C° 0 mm 3 m/s 734 mmHg 60%
23:00 +28°C° 0 mm 2 m/s 734 mmHg 66%

Amanhã, 26 Outubro, Segunda-feira

Tempo Temperatura Precipitação Vento Pressão Humidade
00:00 +27°C° 0 mm 2 m/s 734 mmHg 73%
01:00 +27°C° 0 mm 2 m/s 734 mmHg 75%
02:00 +26°C° 0 mm 2 m/s 733 mmHg 77%
03:00 +25°C° 0 mm 1 m/s 733 mmHg 79%
04:00 +25°C° 0 mm 1 m/s 734 mmHg 78%
05:00 +25°C° 0 mm 1 m/s 734 mmHg 77%
06:00 +25°C° 0 mm 1 m/s 735 mmHg 76%
07:00 +28°C° 0 mm 2 m/s 735 mmHg 65%
08:00 +30°C° 0 mm 2 m/s 735 mmHg 54%
09:00 +34°C° 0 mm 3 m/s 735 mmHg 43%
10:00 +36°C° 0 mm 3 m/s 735 mmHg 37%
11:00 +38°C° 0 mm 3 m/s 734 mmHg 31%
12:00 +40°C° 0 mm 3 m/s 733 mmHg 24%
13:00 +40°C° 0 mm 3 m/s 732 mmHg 24%
14:00 +40°C° 0 mm 3 m/s 731 mmHg 23%
15:00 +42°C° 0 mm 3 m/s 731 mmHg 22%
16:00 +39°C° 0 mm 3 m/s 731 mmHg 25%
17:00 +37°C° 0 mm 2 m/s 731 mmHg 28%
18:00 +35°C° 0 mm 2 m/s 731 mmHg 31%
19:00 +34°C° 0 mm 2 m/s 732 mmHg 38%
20:00 +31°C° 0 mm 3 m/s 733 mmHg 45%
21:00 +30°C° 0 mm 3 m/s 733 mmHg 53%
22:00 +29°C° 0 mm 3 m/s 733 mmHg 58%
23:00 +28°C° 0 mm 2 m/s 733 mmHg 64%

Depois de amanhã, 27 Outubro, Terça-feira

Tempo Temperatura Precipitação Vento Pressão Humidade
00:00 +26°C° 0 mm 2 m/s 733 mmHg 69%
01:00 +26°C° 0 mm 2 m/s 733 mmHg 74%
02:00 +25°C° 0 mm 2 m/s 733 mmHg 79%
03:00 +24°C° 0 mm 1 m/s 733 mmHg 83%
04:00 +25°C° 0 mm 1 m/s 733 mmHg 81%
05:00 +25°C° 0 mm 1 m/s 734 mmHg 80%
06:00 +25°C° 0 mm 1 m/s 734 mmHg 78%
07:00 +27°C° 0 mm 1 m/s 735 mmHg 69%
08:00 +29°C° 0 mm 1 m/s 735 mmHg 61%
09:00 +31°C° 0 mm 2 m/s 735 mmHg 53%
10:00 +34°C° 0 mm 2 m/s 734 mmHg 45%
11:00 +37°C° 0 mm 2 m/s 734 mmHg 37%
12:00 +40°C° 0 mm 2 m/s 733 mmHg 28%
13:00 +40°C° 0 mm 2 m/s 732 mmHg 27%
14:00 +40°C° 0 mm 2 m/s 731 mmHg 25%
15:00 +40°C° 0 mm 2 m/s 731 mmHg 23%
16:00 +37°C° 0 mm 1 m/s 731 mmHg 27%
17:00 +35°C° 0 mm 1 m/s 731 mmHg 30%
18:00 +31°C° 0 mm 0 m/s 731 mmHg 34%
19:00 +32°C° 0 mm 1 m/s 731 mmHg 38%
20:00 +31°C° 0 mm 2 m/s 732 mmHg 42%
21:00 +30°C° 0 mm 3 m/s 733 mmHg 46%
22:00 +29°C° 0 mm 3 m/s 733 mmHg 54%
23:00 +27°C° 0 mm 2 m/s 733 mmHg 62%

28 Outubro, Quarta-feira

Tempo Temperatura Precipitação Vento Pressão Humidade
00:00 +26°C° 0 mm 2 m/s 732 mmHg 69%
01:00 +26°C° 0 mm 2 m/s 732 mmHg 72%
02:00 +25°C° 0 mm 2 m/s 732 mmHg 74%
03:00 +24°C° 0 mm 1 m/s 732 mmHg 77%
04:00 +24°C° 0 mm 2 m/s 733 mmHg 76%
05:00 +25°C° 0 mm 2 m/s 733 mmHg 76%
06:00 +25°C° 0 mm 2 m/s 734 mmHg 75%
07:00 +27°C° 0 mm 2 m/s 734 mmHg 65%
08:00 +29°C° 0 mm 3 m/s 734 mmHg 55%
09:00 +33°C° 0 mm 3 m/s 735 mmHg 44%
10:00 +35°C° 0 mm 3 m/s 734 mmHg 38%
11:00 +37°C° 0 mm 3 m/s 733 mmHg 32%
12:00 +39°C° 0 mm 3 m/s 733 mmHg 25%
13:00 +40°C° 0 mm 3 m/s 732 mmHg 24%
14:00 +40°C° 0 mm 3 m/s 731 mmHg 22%
15:00 +40°C° 0 mm 3 m/s 730 mmHg 21%
16:00 +38°C° 0 mm 2 m/s 730 mmHg 23%
17:00 +36°C° 0 mm 2 m/s 731 mmHg 26%
18:00 +33°C° 0 mm 1 m/s 731 mmHg 28%
19:00 +32°C° 0 mm 2 m/s 732 mmHg 37%
20:00 +30°C° 0 mm 3 m/s 732 mmHg 46%
21:00 +29°C° 0 mm 4 m/s 733 mmHg 55%
22:00 +28°C° 0 mm 3 m/s 733 mmHg 60%
23:00 +27°C° 0 mm 2 m/s 733 mmHg 65%

29 Outubro, Quinta-feira

Tempo Temperatura Precipitação Vento Pressão Humidade
00:00 +26°C° 0 mm 1 m/s 733 mmHg 70%
01:00 +25°C° 0 mm 2 m/s 733 mmHg 73%
02:00 +24°C° 0 mm 2 m/s 733 mmHg 76%
03:00 +24°C° 0 mm 2 m/s 733 mmHg 78%
04:00 +24°C° 0 mm 2 m/s 733 mmHg 79%
05:00 +23°C° 0 mm 2 m/s 734 mmHg 80%
06:00 +23°C° 0 mm 2 m/s 734 mmHg 81%
07:00 +25°C° 0 mm 2 m/s 735 mmHg 71%
08:00 +28°C° 0 mm 3 m/s 735 mmHg 61%
09:00 +30°C° 0 mm 3 m/s 736 mmHg 50%
10:00 +33°C° 0 mm 3 m/s 735 mmHg 42%
11:00 +36°C° 0 mm 3 m/s 734 mmHg 33%
12:00 +38°C° 0 mm 3 m/s 734 mmHg 25%
13:00 +39°C° 0 mm 3 m/s 733 mmHg 22%
14:00 +39°C° 0 mm 3 m/s 732 mmHg 19%
15:00 +40°C° 0 mm 3 m/s 731 mmHg 16%
16:00 +38°C° 0 mm 2 m/s 732 mmHg 19%
17:00 +36°C° 0 mm 2 m/s 732 mmHg 22%
18:00 +32°C° 0 mm 1 m/s 732 mmHg 24%
19:00 +31°C° 0 mm 2 m/s 733 mmHg 32%
20:00 +30°C° 0 mm 2 m/s 733 mmHg 39%
21:00 +29°C° 0 mm 3 m/s 734 mmHg 47%
22:00 +28°C° 0 mm 2 m/s 734 mmHg 54%
23:00 +27°C° 0 mm 2 m/s 734 mmHg 61%

30 Outubro, Sexta-feira

Tempo Temperatura Precipitação Vento Pressão Humidade
00:00 +26°C° 0 mm 2 m/s 734 mmHg 68%
01:00 +25°C° 0 mm 2 m/s 734 mmHg 71%
02:00 +25°C° 0 mm 2 m/s 734 mmHg 74%
03:00 +24°C° 0 mm 2 m/s 734 mmHg 77%
04:00 +24°C° 0 mm 2 m/s 734 mmHg 78%
05:00 +24°C° 0 mm 2 m/s 735 mmHg 78%
06:00 +24°C° 0 mm 2 m/s 736 mmHg 79%
07:00 +27°C° 0 mm 3 m/s 736 mmHg 67%
08:00 +29°C° 0 mm 3 m/s 736 mmHg 55%
09:00 +33°C° 0 mm 3 m/s 736 mmHg 43%
10:00 +35°C° 0 mm 3 m/s 736 mmHg 36%
11:00 +37°C° 0 mm 3 m/s 735 mmHg 30%
12:00 +39°C° 0 mm 3 m/s 734 mmHg 23%
13:00 +40°C° 0 mm 3 m/s 733 mmHg 20%
14:00 +40°C° 0 mm 3 m/s 732 mmHg 18%
15:00 +42°C° 0 mm 3 m/s 732 mmHg 16%
16:00 +38°C° 0 mm 2 m/s 732 mmHg 18%
17:00 +35°C° 0 mm 1 m/s 732 mmHg 21%
18:00 +33°C° 0 mm 1 m/s 732 mmHg 23%
19:00 +32°C° 0 mm 1 m/s 733 mmHg 29%
20:00 +30°C° 0 mm 2 m/s 733 mmHg 35%
21:00 +29°C° 0 mm 2 m/s 734 mmHg 42%
22:00 +28°C° 0 mm 2 m/s 734 mmHg 50%
23:00 +27°C° 0 mm 2 m/s 734 mmHg 59%
Mostrar mais